N839BA TNCM-GCLP

Flight info

Callsign N839BA
Flight time N/A
Altitude 37000
Route MODOR2 MODOR DCT MNOLO DCT 2057N DCT 2155N DCT 2445N/M076F390 DCT 2540N DCT 26N035W DCT 2730N DCT IXIKU/N0439F390 DCT HIE HIE3C
Aircraft B737/M-SDE1E2E3FGHIJ2J3J4J5M1RWXYZ/LB1

Departure

Time N/A
Airport Princess Juliana International Airport (TNCM)

Arrival

Time 2026-04-27 03:42
Airport Gran Canaria Airport (GCLP)
Time Latitude Longitude Altitude Speed Heading
2026-04-26 22:34 19.46866 -59.23505 37060 ft 501 kts 68°
2026-04-26 22:35 19.48160 -59.20071 37054 ft 501 kts 68°
2026-04-26 22:35 19.50738 -59.13226 37059 ft 500 kts 68°
2026-04-26 22:36 19.53315 -59.06378 37054 ft 500 kts 69°
2026-04-26 22:36 19.55881 -58.99544 37064 ft 502 kts 68°
2026-04-26 22:37 19.58444 -58.92709 37065 ft 504 kts 68°
2026-04-26 22:37 19.61041 -58.85778 37070 ft 506 kts 68°
2026-04-26 22:38 19.63626 -58.78868 37067 ft 508 kts 68°
2026-04-26 22:38 19.66231 -58.71895 37063 ft 510 kts 68°
2026-04-26 22:39 19.68842 -58.64897 37062 ft 510 kts 68°
2026-04-26 22:39 19.71454 -58.57886 37061 ft 510 kts 68°
2026-04-26 22:40 19.74048 -58.50914 37063 ft 510 kts 68°
2026-04-26 22:40 19.76654 -58.43901 37064 ft 509 kts 68°
2026-04-26 22:41 19.79254 -58.36893 37065 ft 509 kts 68°
2026-04-26 22:41 19.81844 -58.29903 37065 ft 508 kts 68°
2026-04-26 22:42 19.84417 -58.22951 37067 ft 508 kts 68°
2026-04-26 22:42 19.86996 -58.15969 37073 ft 507 kts 68°
2026-04-26 22:43 19.89575 -58.08982 37061 ft 507 kts 68°
2026-04-26 22:43 19.92130 -58.02049 37069 ft 507 kts 68°
2026-04-26 22:44 19.94696 -57.95075 37075 ft 507 kts 68°
2026-04-26 22:44 19.97264 -57.88087 37080 ft 507 kts 68°
2026-04-26 22:45 19.99834 -57.81083 37073 ft 508 kts 68°
2026-04-26 22:45 20.02401 -57.74079 37074 ft 508 kts 68°
2026-04-26 22:46 20.04950 -57.67113 37077 ft 508 kts 69°
2026-04-26 22:46 20.07519 -57.60084 37080 ft 508 kts 69°
2026-04-26 22:47 20.10081 -57.53064 37074 ft 509 kts 68°
2026-04-26 22:47 20.12626 -57.46078 37087 ft 509 kts 68°
2026-04-26 22:48 20.15202 -57.39000 37084 ft 510 kts 69°
2026-04-26 22:48 20.17747 -57.31997 37082 ft 510 kts 69°
2026-04-26 22:49 20.20309 -57.24936 37080 ft 510 kts 69°
2026-04-26 22:49 20.22868 -57.17873 37083 ft 510 kts 69°
2026-04-26 22:50 20.24989 -57.12013 37086 ft 511 kts 69°
2026-04-26 22:50 20.27959 -57.03793 37092 ft 511 kts 68°
2026-04-26 22:51 20.30096 -56.97870 37089 ft 511 kts 69°
2026-04-26 22:51 20.32631 -56.90836 37091 ft 512 kts 69°
2026-04-26 22:52 20.35183 -56.83743 37077 ft 512 kts 69°
2026-04-26 22:52 20.37715 -56.76696 37086 ft 512 kts 69°
2026-04-26 22:53 20.40259 -56.69604 37089 ft 512 kts 69°
2026-04-26 22:53 20.42799 -56.62514 37090 ft 512 kts 69°
2026-04-26 22:54 20.45342 -56.55407 37098 ft 512 kts 69°
2026-04-26 22:54 20.47881 -56.48298 37093 ft 512 kts 69°
2026-04-26 22:55 20.50401 -56.41235 37094 ft 512 kts 69°
2026-04-26 22:55 20.52937 -56.34113 37093 ft 513 kts 69°
2026-04-26 22:56 20.55468 -56.26998 37090 ft 513 kts 69°
2026-04-26 22:56 20.57999 -56.19872 37096 ft 512 kts 69°
2026-04-26 22:57 20.60510 -56.12789 37098 ft 512 kts 69°
2026-04-26 22:57 20.63032 -56.05667 37108 ft 513 kts 69°
2026-04-26 22:58 20.65549 -55.98547 37105 ft 513 kts 69°
2026-04-26 22:58 20.68069 -55.91407 37100 ft 513 kts 69°
2026-04-26 22:59 20.70584 -55.84274 37101 ft 513 kts 69°
2026-04-26 22:59 20.73098 -55.77131 37094 ft 513 kts 69°
2026-04-26 23:00 20.75592 -55.70032 37100 ft 513 kts 69°
2026-04-26 23:00 20.78103 -55.62878 37104 ft 513 kts 69°
2026-04-26 23:01 20.80604 -55.55738 37106 ft 513 kts 69°
2026-04-26 23:01 20.83105 -55.48590 37097 ft 513 kts 69°
2026-04-26 23:02 20.85585 -55.41489 37104 ft 513 kts 69°
2026-04-26 23:02 20.88076 -55.34347 37104 ft 513 kts 69°
2026-04-26 23:03 20.90566 -55.27197 37102 ft 512 kts 69°
2026-04-26 23:03 20.93059 -55.20027 37102 ft 512 kts 69°
2026-04-26 23:04 20.95527 -55.12917 37123 ft 512 kts 69°
2026-04-26 23:04 20.98010 -55.05753 37107 ft 513 kts 69°
2026-04-26 23:05 21.00475 -54.98626 37097 ft 513 kts 69°
2026-04-26 23:05 21.02907 -54.91442 37113 ft 513 kts 70°
2026-04-26 23:06 21.05317 -54.84245 37111 ft 513 kts 70°
2026-04-26 23:06 21.07728 -54.77043 37113 ft 513 kts 70°
2026-04-26 23:07 21.10139 -54.69847 37113 ft 513 kts 70°
2026-04-26 23:07 21.12534 -54.62694 37125 ft 513 kts 69°
2026-04-26 23:08 21.14944 -54.55485 37115 ft 514 kts 69°
2026-04-26 23:08 21.17356 -54.48258 37114 ft 514 kts 69°
2026-04-26 23:09 21.19746 -54.41085 37117 ft 514 kts 70°
2026-04-26 23:09 21.22147 -54.33868 37117 ft 514 kts 70°
2026-04-26 23:10 21.24544 -54.26650 37121 ft 514 kts 70°
2026-04-26 23:10 21.26924 -54.19472 37119 ft 513 kts 70°
2026-04-26 23:11 21.29313 -54.12255 37128 ft 514 kts 69°
2026-04-26 23:11 21.31705 -54.05019 37122 ft 514 kts 69°
2026-04-26 23:12 21.34089 -53.97796 37116 ft 514 kts 69°
2026-04-26 23:12 21.36472 -53.90561 37129 ft 513 kts 69°
2026-04-26 23:13 21.38836 -53.83376 37127 ft 513 kts 69°
2026-04-26 23:13 21.41213 -53.76136 37125 ft 513 kts 70°
2026-04-26 23:14 21.43585 -53.68902 37132 ft 513 kts 69°
2026-04-26 23:14 21.45952 -53.61670 37128 ft 513 kts 69°
2026-04-26 23:15 21.48302 -53.54478 37130 ft 513 kts 69°
2026-04-26 23:15 21.50666 -53.47234 37131 ft 513 kts 69°
2026-04-26 23:16 21.53026 -53.39989 37130 ft 513 kts 70°
2026-04-26 23:16 21.55366 -53.32791 37134 ft 513 kts 70°
2026-04-26 23:17 21.57718 -53.25546 37148 ft 513 kts 70°
2026-04-26 23:17 21.60070 -53.18289 37135 ft 514 kts 69°
2026-04-26 23:18 21.62415 -53.11041 37134 ft 514 kts 70°
2026-04-26 23:18 21.64760 -53.03782 37138 ft 514 kts 70°
2026-04-26 23:19 21.67103 -52.96517 37140 ft 514 kts 69°
2026-04-26 23:19 21.69428 -52.89295 37138 ft 514 kts 70°
2026-04-26 23:20 21.71765 -52.82024 37139 ft 514 kts 70°
2026-04-26 23:20 21.74101 -52.74744 37131 ft 514 kts 70°
2026-04-26 23:21 21.76422 -52.67500 37140 ft 514 kts 70°
2026-04-26 23:21 21.78748 -52.60225 37139 ft 514 kts 70°
2026-04-26 23:22 21.81079 -52.52923 37137 ft 514 kts 70°
2026-04-26 23:22 21.83400 -52.45641 37140 ft 514 kts 70°
2026-04-26 23:23 21.85705 -52.38397 37140 ft 514 kts 70°
2026-04-26 23:23 21.88019 -52.31111 37148 ft 514 kts 70°
2026-04-26 23:24 21.90333 -52.23812 37149 ft 514 kts 70°
2026-04-26 23:24 21.92645 -52.16508 37140 ft 514 kts 70°
2026-04-26 23:25 21.94935 -52.09262 37150 ft 514 kts 70°
2026-04-26 23:25 21.97237 -52.01964 37141 ft 514 kts 70°
2026-04-26 23:26 21.99538 -51.94656 37145 ft 514 kts 70°
2026-04-26 23:26 22.01826 -51.87379 37153 ft 515 kts 70°
2026-04-26 23:27 22.04122 -51.80063 37143 ft 515 kts 70°
2026-04-26 23:27 22.06416 -51.72740 37153 ft 515 kts 70°
2026-04-26 23:28 22.08701 -51.65433 37154 ft 515 kts 70°
2026-04-26 23:28 22.10990 -51.58100 37149 ft 515 kts 70°
2026-04-26 23:29 22.13272 -51.50779 37154 ft 515 kts 70°
2026-04-26 23:29 22.15537 -51.43497 37159 ft 515 kts 70°
2026-04-26 23:30 22.17817 -51.36155 37153 ft 515 kts 70°
2026-04-26 23:30 22.20094 -51.28810 37162 ft 515 kts 70°
2026-04-26 23:31 22.22365 -51.21472 37150 ft 515 kts 70°
2026-04-26 23:31 22.24632 -51.14134 37161 ft 515 kts 70°
2026-04-26 23:32 22.26881 -51.06838 37160 ft 515 kts 70°
2026-04-26 23:32 22.29142 -50.99493 37155 ft 515 kts 70°
2026-04-26 23:33 22.31402 -50.92137 37158 ft 515 kts 70°
2026-04-26 23:33 22.33655 -50.84791 37158 ft 515 kts 70°
2026-04-26 23:34 22.35904 -50.77445 37156 ft 515 kts 70°
2026-04-26 23:34 22.38153 -50.70086 37160 ft 515 kts 70°
2026-04-26 23:35 22.40394 -50.62739 37170 ft 515 kts 70°
2026-04-26 23:35 22.42619 -50.55433 37154 ft 515 kts 70°
2026-04-26 23:36 22.44857 -50.48069 37165 ft 515 kts 70°
2026-04-26 23:36 22.47093 -50.40701 37164 ft 515 kts 70°
2026-04-26 23:37 22.49307 -50.33390 37156 ft 515 kts 70°
2026-04-26 23:37 22.51533 -50.26027 37165 ft 515 kts 70°
2026-04-26 23:38 22.53757 -50.18655 37173 ft 515 kts 70°
2026-04-26 23:38 22.55977 -50.11287 37168 ft 515 kts 70°
2026-04-26 23:39 22.57823 -50.05148 37162 ft 515 kts 70°
2026-04-26 23:39 22.60398 -49.96568 37161 ft 515 kts 70°
2026-04-26 23:40 22.62250 -49.90385 37170 ft 515 kts 70°
2026-04-26 23:40 22.64456 -49.83008 37168 ft 515 kts 70°
2026-04-26 23:41 22.66649 -49.75663 37178 ft 515 kts 70°
2026-04-26 23:41 22.68850 -49.68278 37174 ft 515 kts 70°
2026-04-26 23:42 22.71037 -49.60925 37174 ft 515 kts 70°
2026-04-26 23:42 22.74331 -49.49822 37168 ft 515 kts 70°
2026-04-26 23:43 22.76520 -49.42428 37177 ft 515 kts 70°
2026-04-26 23:43 22.78690 -49.35083 37188 ft 515 kts 70°
2026-04-26 23:44 22.80875 -49.27675 37169 ft 515 kts 70°
2026-04-26 23:44 22.83054 -49.20272 37176 ft 515 kts 70°
2026-04-26 23:45 22.85215 -49.12917 37179 ft 515 kts 70°
2026-04-26 23:45 22.87386 -49.05516 37177 ft 515 kts 70°
2026-04-26 23:46 22.89544 -48.98143 37177 ft 514 kts 70°
2026-04-26 23:46 22.91710 -48.90730 37187 ft 515 kts 70°
2026-04-26 23:47 22.93871 -48.83317 37182 ft 515 kts 70°
2026-04-26 23:47 22.96029 -48.75902 37182 ft 515 kts 70°
2026-04-26 23:48 22.98166 -48.68545 37179 ft 514 kts 70°
2026-04-26 23:48 23.00307 -48.61162 37173 ft 514 kts 70°
2026-04-26 23:49 23.02455 -48.53737 37194 ft 514 kts 70°
2026-04-26 23:49 23.04596 -48.46324 37185 ft 514 kts 70°
2026-04-26 23:50 23.06723 -48.38946 37173 ft 514 kts 70°
2026-04-26 23:50 23.08855 -48.31535 37179 ft 514 kts 70°
2026-04-26 23:51 23.10980 -48.24134 37184 ft 514 kts 70°
2026-04-26 23:51 23.13106 -48.16719 37186 ft 514 kts 70°
2026-04-26 23:52 23.15215 -48.09345 37190 ft 514 kts 70°
2026-04-26 23:52 23.17335 -48.01916 37188 ft 514 kts 70°
2026-04-26 23:53 23.19455 -47.94478 37188 ft 514 kts 70°
2026-04-26 23:53 23.21560 -47.87072 37187 ft 514 kts 70°
2026-04-26 23:54 23.23670 -47.79637 37178 ft 514 kts 70°
2026-04-26 23:54 23.25765 -47.72241 37193 ft 515 kts 70°
2026-04-26 23:55 23.27869 -47.64798 37188 ft 515 kts 70°
2026-04-26 23:55 23.29971 -47.57349 37183 ft 515 kts 70°
2026-04-26 23:56 23.32067 -47.49903 37190 ft 515 kts 70°
2026-04-26 23:56 23.34151 -47.42487 37188 ft 515 kts 70°
2026-04-26 23:57 23.36242 -47.35030 37197 ft 515 kts 70°
2026-04-26 23:57 23.38330 -47.27571 37191 ft 515 kts 70°
2026-04-26 23:58 23.40421 -47.20084 37192 ft 516 kts 70°
2026-04-26 23:58 23.42499 -47.12629 37187 ft 516 kts 70°
2026-04-26 23:59 23.44564 -47.05206 37192 ft 516 kts 70°
2026-04-26 23:59 23.46645 -46.97709 37190 ft 516 kts 70°
2026-04-27 00:00 23.48718 -46.90227 37193 ft 516 kts 70°
2026-04-27 00:00 23.50790 -46.82733 37196 ft 516 kts 70°
2026-04-27 00:01 23.52850 -46.75266 37195 ft 516 kts 70°
2026-04-27 00:01 23.54903 -46.67813 37193 ft 516 kts 70°
2026-04-27 00:02 23.56959 -46.60331 37202 ft 516 kts 70°
2026-04-27 00:02 23.59016 -46.52828 37192 ft 516 kts 70°
2026-04-27 00:03 23.61056 -46.45375 37198 ft 516 kts 70°
2026-04-27 00:03 23.63103 -46.37879 37196 ft 516 kts 70°
2026-04-27 00:04 23.65150 -46.30370 37192 ft 516 kts 70°
2026-04-27 00:04 23.67190 -46.22866 37210 ft 516 kts 70°
2026-04-27 00:05 23.69230 -46.15352 37201 ft 516 kts 70°
2026-04-27 00:05 23.71259 -46.07860 37196 ft 516 kts 70°
2026-04-27 00:06 23.73288 -46.00354 37195 ft 517 kts 70°
2026-04-27 00:06 23.75318 -45.92828 37188 ft 516 kts 70°
2026-04-27 00:07 23.77342 -45.85306 37208 ft 517 kts 70°
2026-04-27 00:07 23.79354 -45.77813 37208 ft 517 kts 70°
2026-04-27 00:08 23.81378 -45.70264 37196 ft 517 kts 70°
2026-04-27 00:08 23.83388 -45.62745 37195 ft 517 kts 70°
2026-04-27 00:09 23.85388 -45.55250 37199 ft 517 kts 70°
2026-04-27 00:09 23.87399 -45.47699 37187 ft 517 kts 70°
2026-04-27 00:10 23.89405 -45.40150 37197 ft 517 kts 70°
2026-04-27 00:10 23.91410 -45.32590 37196 ft 517 kts 70°
2026-04-27 00:11 23.93402 -45.25058 37195 ft 517 kts 70°
2026-04-27 00:11 23.95400 -45.17492 37188 ft 517 kts 71°
2026-04-27 00:12 23.97379 -45.09977 37194 ft 518 kts 70°
2026-04-27 00:12 23.99368 -45.02412 37193 ft 518 kts 70°
2026-04-27 00:13 24.01258 -44.94805 37192 ft 519 kts 73°
2026-04-27 00:13 24.02894 -44.87119 37197 ft 519 kts 74°
2026-04-27 00:14 24.04500 -44.79404 37205 ft 519 kts 74°
2026-04-27 00:14 24.06129 -44.71747 37195 ft 519 kts 73°
2026-04-27 00:15 24.07790 -44.64041 37194 ft 519 kts 73°
2026-04-27 00:15 24.09437 -44.56405 37205 ft 519 kts 73°
2026-04-27 00:16 24.11092 -44.48710 37201 ft 519 kts 73°
2026-04-27 00:16 24.12741 -44.41006 37203 ft 519 kts 73°
2026-04-27 00:17 24.14387 -44.33300 37178 ft 519 kts 74°
2026-04-27 00:17 24.16014 -44.25658 37195 ft 518 kts 74°
2026-04-27 00:18 24.17647 -44.17971 37207 ft 518 kts 74°
2026-04-27 00:18 24.19276 -44.10282 37194 ft 518 kts 74°
2026-04-27 00:19 24.20901 -44.02592 37197 ft 518 kts 74°
2026-04-27 00:19 24.22521 -43.94902 37198 ft 518 kts 74°
2026-04-27 00:20 24.24140 -43.87202 37193 ft 518 kts 74°
2026-04-27 00:20 24.25749 -43.79528 37202 ft 518 kts 74°
2026-04-27 00:21 24.27351 -43.71864 37201 ft 518 kts 74°
2026-04-27 00:21 24.28956 -43.64165 37200 ft 518 kts 74°
2026-04-27 00:22 24.30558 -43.56466 37200 ft 518 kts 74°
2026-04-27 00:22 24.32155 -43.48764 37199 ft 518 kts 74°
2026-04-27 00:23 24.33740 -43.41100 37205 ft 518 kts 74°
2026-04-27 00:23 24.35328 -43.33405 37197 ft 518 kts 74°
2026-04-27 00:24 24.36918 -43.25677 37200 ft 518 kts 74°
2026-04-27 00:24 24.38502 -43.17957 37197 ft 518 kts 74°
2026-04-27 00:25 24.40081 -43.10243 37198 ft 518 kts 74°
2026-04-27 00:25 24.41647 -43.02568 37206 ft 518 kts 74°
2026-04-27 00:26 24.43216 -42.94860 37200 ft 518 kts 74°
2026-04-27 00:26 24.44783 -42.87140 37200 ft 518 kts 74°
2026-04-27 00:27 24.46347 -42.79410 37192 ft 518 kts 74°
2026-04-27 00:27 24.47907 -42.71682 37198 ft 518 kts 74°
2026-04-27 00:28 24.49452 -42.64004 37196 ft 518 kts 74°
2026-04-27 00:28 24.50999 -42.56300 37203 ft 518 kts 74°
2026-04-27 00:29 24.52284 -42.49880 37198 ft 518 kts 74°
2026-04-27 00:29 24.53829 -42.42144 37199 ft 517 kts 74°
2026-04-27 00:30 24.55368 -42.34416 37200 ft 518 kts 74°
2026-04-27 00:30 24.56895 -42.26726 37199 ft 517 kts 74°
2026-04-27 00:31 24.58422 -42.19019 37207 ft 517 kts 74°
2026-04-27 00:31 24.59951 -42.11275 37201 ft 518 kts 74°
2026-04-27 00:32 24.61473 -42.03546 37199 ft 518 kts 74°
2026-04-27 00:32 24.62993 -41.95805 37203 ft 518 kts 74°
2026-04-27 00:33 24.64499 -41.88114 37200 ft 518 kts 75°
2026-04-27 00:33 24.66007 -41.80389 37198 ft 518 kts 75°
2026-04-27 00:34 24.67515 -41.72645 37203 ft 518 kts 75°
2026-04-27 00:34 24.69022 -41.64880 37198 ft 518 kts 75°
2026-04-27 00:35 24.70525 -41.57120 37199 ft 518 kts 75°
2026-04-27 00:35 24.72019 -41.49379 37198 ft 519 kts 75°
2026-04-27 00:36 24.73510 -41.41630 37202 ft 519 kts 75°
2026-04-27 00:36 24.75000 -41.33863 37197 ft 519 kts 75°
2026-04-27 00:37 24.76480 -41.26128 37197 ft 519 kts 75°
2026-04-27 00:37 24.77966 -41.18337 37199 ft 519 kts 75°
2026-04-27 00:38 24.79445 -41.10560 37193 ft 518 kts 75°
2026-04-27 00:38 24.80907 -41.02852 37195 ft 518 kts 75°
2026-04-27 00:39 24.82374 -40.95091 37199 ft 518 kts 75°
2026-04-27 00:39 24.83840 -40.87319 37201 ft 518 kts 75°
2026-04-27 00:40 24.85301 -40.79546 37199 ft 518 kts 75°
2026-04-27 00:40 24.86747 -40.71830 37198 ft 518 kts 75°
2026-04-27 00:41 24.88196 -40.64072 37202 ft 518 kts 75°
2026-04-27 00:41 24.89648 -40.56281 37195 ft 518 kts 75°
2026-04-27 00:42 24.91083 -40.48554 37201 ft 518 kts 75°
2026-04-27 00:42 24.92522 -40.40779 37196 ft 518 kts 75°
2026-04-27 00:43 24.93962 -40.32980 37197 ft 518 kts 75°
2026-04-27 00:43 24.95381 -40.25270 37209 ft 518 kts 75°
2026-04-27 00:44 24.96809 -40.17482 37198 ft 518 kts 75°
2026-04-27 00:44 24.98237 -40.09677 37196 ft 519 kts 75°
2026-04-27 00:45 24.99652 -40.01919 37202 ft 519 kts 75°
2026-04-27 00:45 25.01167 -39.94165 37194 ft 518 kts 73°
2026-04-27 00:46 25.02887 -39.86445 37197 ft 518 kts 72°
2026-04-27 00:46 25.04619 -39.78732 37203 ft 518 kts 72°
2026-04-27 00:47 25.06320 -39.70982 37194 ft 519 kts 72°
2026-04-27 00:47 25.07984 -39.63288 37205 ft 519 kts 73°
2026-04-27 00:48 25.09653 -39.55532 37208 ft 519 kts 73°
2026-04-27 00:48 25.11317 -39.47782 37195 ft 519 kts 73°
2026-04-27 00:49 25.12982 -39.40018 37194 ft 519 kts 73°
2026-04-27 00:49 25.14643 -39.32251 37204 ft 519 kts 73°
2026-04-27 00:50 25.17122 -39.20624 37202 ft 519 kts 73°
2026-04-27 00:51 25.18759 -39.12916 37194 ft 519 kts 73°
2026-04-27 00:51 25.20401 -39.05163 37206 ft 519 kts 73°
2026-04-27 00:52 25.22041 -38.97402 37194 ft 518 kts 73°
2026-04-27 00:52 25.23676 -38.89641 37202 ft 518 kts 73°
2026-04-27 00:53 25.25287 -38.81977 37205 ft 518 kts 73°
2026-04-27 00:53 25.26926 -38.74155 37204 ft 517 kts 73°
2026-04-27 00:54 25.28533 -38.66465 37211 ft 517 kts 73°
2026-04-27 00:54 25.30151 -38.58698 37196 ft 517 kts 73°
2026-04-27 00:55 25.31763 -38.50941 37200 ft 517 kts 73°
2026-04-27 00:55 25.33357 -38.43249 37199 ft 517 kts 73°
2026-04-27 00:56 25.34951 -38.35538 37202 ft 518 kts 73°
2026-04-27 00:56 25.36559 -38.27735 37198 ft 518 kts 73°
2026-04-27 00:57 25.38161 -38.19939 37199 ft 518 kts 73°
2026-04-27 00:57 25.39755 -38.12161 37201 ft 518 kts 73°
2026-04-27 00:58 25.41338 -38.04416 37198 ft 518 kts 73°
2026-04-27 00:58 25.42918 -37.96658 37199 ft 518 kts 73°
2026-04-27 00:59 25.44500 -37.88872 37196 ft 518 kts 73°
2026-04-27 00:59 25.46075 -37.81098 37198 ft 518 kts 73°
2026-04-27 01:00 25.47651 -37.73299 37198 ft 518 kts 73°
2026-04-27 01:00 25.49219 -37.65512 37204 ft 518 kts 73°
2026-04-27 01:01 25.50785 -37.57718 37204 ft 519 kts 73°
2026-04-27 01:01 25.52347 -37.49919 37197 ft 519 kts 73°
2026-04-27 01:02 25.53906 -37.42114 37209 ft 519 kts 73°
2026-04-27 01:02 25.55451 -37.34351 37196 ft 519 kts 73°
2026-04-27 01:03 25.57004 -37.26528 37198 ft 519 kts 73°
2026-04-27 01:03 25.58547 -37.18737 37203 ft 519 kts 73°
2026-04-27 01:04 25.60090 -37.10919 37196 ft 520 kts 73°
2026-04-27 01:04 25.61621 -37.03138 37198 ft 520 kts 73°
2026-04-27 01:05 25.63158 -36.95302 37201 ft 520 kts 73°
2026-04-27 01:05 25.64689 -36.87479 37202 ft 520 kts 73°
2026-04-27 01:06 25.66217 -36.79647 37204 ft 520 kts 74°
2026-04-27 01:06 25.67736 -36.71835 37206 ft 520 kts 73°
2026-04-27 01:07 25.69255 -36.63998 37202 ft 520 kts 73°
2026-04-27 01:07 25.70770 -36.56161 37207 ft 520 kts 74°
2026-04-27 01:08 25.72281 -36.48320 37203 ft 520 kts 74°
2026-04-27 01:08 25.73786 -36.40485 37203 ft 519 kts 74°
2026-04-27 01:09 25.75278 -36.32695 37202 ft 519 kts 74°
2026-04-27 01:09 25.76774 -36.24864 37209 ft 519 kts 74°
2026-04-27 01:10 25.78270 -36.17007 37203 ft 519 kts 74°
2026-04-27 01:10 25.79759 -36.09160 37205 ft 519 kts 74°
2026-04-27 01:11 25.81218 -36.01450 37205 ft 519 kts 74°
2026-04-27 01:11 25.82716 -35.93509 37211 ft 520 kts 74°
2026-04-27 01:12 25.84193 -35.85652 37205 ft 520 kts 74°
2026-04-27 01:12 25.85669 -35.77778 37204 ft 520 kts 74°
2026-04-27 01:13 25.87131 -35.69955 37205 ft 520 kts 74°
2026-04-27 01:13 25.88595 -35.62098 37203 ft 520 kts 74°
2026-04-27 01:14 25.90057 -35.54223 37205 ft 520 kts 74°
2026-04-27 01:14 25.91504 -35.46406 37213 ft 520 kts 73°
2026-04-27 01:15 25.92958 -35.38530 37209 ft 520 kts 73°
2026-04-27 01:15 25.94411 -35.30626 37209 ft 520 kts 74°
2026-04-27 01:16 25.95848 -35.22788 37222 ft 521 kts 73°
2026-04-27 01:16 25.97294 -35.14879 37209 ft 521 kts 73°
2026-04-27 01:17 25.98722 -35.07038 37209 ft 521 kts 73°
2026-04-27 01:17 26.00158 -34.99142 37217 ft 521 kts 73°
2026-04-27 01:18 26.01791 -34.91306 37208 ft 519 kts 70°
2026-04-27 01:18 26.03252 -34.84844 37207 ft 519 kts 70°
2026-04-27 01:19 26.05004 -34.77042 37205 ft 520 kts 71°
2026-04-27 01:19 26.06719 -34.69221 37217 ft 520 kts 71°
2026-04-27 01:20 26.08413 -34.61393 37207 ft 521 kts 71°
2026-04-27 01:20 26.10103 -34.53546 37207 ft 521 kts 71°
2026-04-27 01:21 26.11777 -34.45764 37218 ft 521 kts 71°
2026-04-27 01:21 26.13460 -34.37927 37210 ft 521 kts 71°
2026-04-27 01:22 26.15144 -34.30062 37211 ft 521 kts 71°
2026-04-27 01:22 26.16817 -34.22226 37210 ft 521 kts 71°
2026-04-27 01:23 26.18483 -34.14404 37199 ft 521 kts 71°
2026-04-27 01:23 26.20147 -34.06567 37206 ft 520 kts 71°
2026-04-27 01:24 26.21808 -33.98719 37207 ft 520 kts 71°
2026-04-27 01:24 26.23469 -33.90852 37215 ft 520 kts 71°
2026-04-27 01:25 26.25107 -33.83069 37211 ft 520 kts 71°
2026-04-27 01:25 26.26755 -33.75217 37215 ft 520 kts 71°
2026-04-27 01:26 26.28396 -33.67379 37213 ft 519 kts 71°
2026-04-27 01:26 26.30035 -33.59526 37208 ft 519 kts 71°
2026-04-27 01:27 26.31657 -33.51731 37208 ft 519 kts 71°
2026-04-27 01:27 26.33283 -33.43893 37206 ft 519 kts 71°
2026-04-27 01:28 26.34910 -33.36031 37217 ft 519 kts 71°
2026-04-27 01:28 26.36526 -33.28198 37207 ft 519 kts 71°
2026-04-27 01:29 26.38132 -33.20390 37209 ft 519 kts 71°
2026-04-27 01:29 26.39743 -33.12534 37219 ft 519 kts 71°
2026-04-27 01:30 26.41352 -33.04665 37212 ft 518 kts 71°
2026-04-27 01:30 26.42952 -32.96819 37212 ft 518 kts 71°
2026-04-27 01:31 26.44531 -32.89048 37210 ft 518 kts 71°
2026-04-27 01:31 26.46123 -32.81195 37206 ft 517 kts 71°
2026-04-27 01:32 26.47708 -32.73351 37207 ft 517 kts 71°
2026-04-27 01:32 26.49274 -32.65577 37208 ft 516 kts 71°
2026-04-27 01:33 26.50843 -32.57769 37219 ft 516 kts 71°
2026-04-27 01:33 26.52409 -32.49950 37208 ft 515 kts 71°
2026-04-27 01:34 26.53967 -32.42145 37209 ft 514 kts 71°
2026-04-27 01:34 26.55512 -32.34384 37220 ft 514 kts 71°
2026-04-27 01:35 26.57059 -32.26590 37210 ft 513 kts 71°
2026-04-27 01:35 26.58595 -32.18828 37207 ft 512 kts 71°
2026-04-27 01:36 26.60129 -32.11052 37207 ft 511 kts 71°
2026-04-27 01:36 26.61648 -32.03333 37223 ft 510 kts 71°
2026-04-27 01:37 26.63165 -31.95598 37210 ft 509 kts 71°
2026-04-27 01:37 26.64672 -31.87888 37202 ft 507 kts 71°
2026-04-27 01:38 26.66175 -31.80179 37205 ft 506 kts 71°
2026-04-27 01:38 26.67665 -31.72511 37203 ft 505 kts 72°
2026-04-27 01:39 26.69154 -31.64829 37206 ft 504 kts 72°
2026-04-27 01:39 26.70624 -31.57215 37203 ft 503 kts 72°
2026-04-27 01:40 26.72098 -31.49561 37225 ft 502 kts 72°
2026-04-27 01:40 26.73566 -31.41921 37203 ft 502 kts 72°
2026-04-27 01:41 26.75024 -31.34300 37203 ft 501 kts 72°
2026-04-27 01:41 26.76465 -31.26748 37211 ft 500 kts 72°
2026-04-27 01:42 26.77910 -31.19153 37205 ft 500 kts 72°
2026-04-27 01:42 26.79364 -31.11491 37205 ft 500 kts 72°
2026-04-27 01:43 26.80804 -31.03876 37209 ft 500 kts 72°
2026-04-27 01:43 26.82239 -30.96263 37231 ft 500 kts 73°
2026-04-27 01:44 26.83648 -30.88765 37210 ft 500 kts 73°
2026-04-27 01:44 26.85089 -30.81071 37204 ft 499 kts 73°
2026-04-27 01:45 26.86510 -30.73462 37203 ft 499 kts 73°
2026-04-27 01:45 26.87922 -30.65878 37218 ft 498 kts 73°
2026-04-27 01:46 26.89327 -30.58308 37203 ft 497 kts 73°
2026-04-27 01:46 26.90729 -30.50729 37204 ft 496 kts 73°
2026-04-27 01:47 26.92125 -30.43158 37207 ft 495 kts 73°
2026-04-27 01:47 26.93514 -30.35605 37219 ft 494 kts 74°
2026-04-27 01:48 26.94895 -30.28068 37200 ft 493 kts 74°
2026-04-27 01:48 26.96267 -30.20559 37201 ft 492 kts 74°
2026-04-27 01:49 26.97627 -30.13091 37206 ft 491 kts 74°
2026-04-27 01:49 26.98989 -30.05588 37210 ft 490 kts 74°
2026-04-27 01:50 27.00137 -29.98120 37193 ft 494 kts 84°
2026-04-27 01:50 27.00305 -29.90342 37202 ft 494 kts 87°
2026-04-27 01:51 27.00347 -29.82661 37222 ft 494 kts 86°
2026-04-27 01:51 27.00422 -29.74990 37211 ft 493 kts 86°
2026-04-27 01:52 27.00532 -29.67292 37181 ft 493 kts 86°
2026-04-27 01:52 27.00650 -29.59610 37204 ft 492 kts 86°
2026-04-27 01:53 27.00766 -29.51926 37227 ft 493 kts 86°
2026-04-27 01:53 27.00874 -29.44256 37210 ft 493 kts 86°
2026-04-27 01:54 27.00976 -29.36696 37206 ft 493 kts 86°
2026-04-27 01:54 27.01076 -29.28903 37210 ft 493 kts 86°
2026-04-27 01:55 27.01171 -29.21209 37226 ft 493 kts 86°
2026-04-27 01:55 27.01262 -29.13572 37210 ft 493 kts 86°
2026-04-27 01:56 27.01390 -29.02045 37208 ft 493 kts 86°
2026-04-27 01:56 27.01471 -28.94350 37223 ft 492 kts 86°
2026-04-27 01:57 27.01547 -28.86671 37205 ft 492 kts 86°
2026-04-27 01:57 27.01619 -28.78996 37207 ft 491 kts 86°
2026-04-27 01:58 27.01686 -28.71364 37206 ft 491 kts 86°
2026-04-27 01:58 27.01750 -28.63728 37222 ft 490 kts 86°
2026-04-27 01:59 27.01809 -28.56080 37204 ft 490 kts 86°
2026-04-27 01:59 27.01864 -28.48497 37207 ft 489 kts 86°
2026-04-27 02:00 27.01915 -28.40865 37201 ft 488 kts 86°
2026-04-27 02:00 27.01962 -28.33244 37211 ft 488 kts 86°
2026-04-27 02:01 27.02004 -28.25703 37213 ft 488 kts 86°
2026-04-27 02:01 27.02043 -28.18032 37206 ft 489 kts 87°
2026-04-27 02:02 27.02078 -28.10462 37208 ft 489 kts 87°
2026-04-27 02:02 27.02108 -28.02805 37214 ft 489 kts 87°
2026-04-27 02:03 27.02135 -27.95147 37205 ft 490 kts 87°
2026-04-27 02:03 27.02157 -27.87557 37207 ft 490 kts 87°
2026-04-27 02:04 27.02175 -27.79925 37206 ft 490 kts 87°
2026-04-27 02:04 27.02189 -27.72281 37213 ft 490 kts 87°
2026-04-27 02:05 27.02199 -27.64682 37210 ft 489 kts 87°
2026-04-27 02:05 27.02204 -27.58328 37203 ft 489 kts 87°
2026-04-27 02:06 27.02206 -27.50708 37207 ft 488 kts 87°
2026-04-27 02:06 27.02205 -27.43084 37218 ft 488 kts 87°
2026-04-27 02:07 27.02199 -27.35456 37212 ft 488 kts 87°
2026-04-27 02:07 27.02189 -27.27901 37201 ft 487 kts 87°
2026-04-27 02:08 27.02175 -27.20316 37202 ft 487 kts 87°
2026-04-27 02:08 27.02157 -27.12717 37207 ft 486 kts 87°
2026-04-27 02:09 27.02135 -27.05129 37202 ft 486 kts 87°
2026-04-27 02:09 27.02109 -26.97541 37200 ft 486 kts 87°
2026-04-27 02:10 27.02079 -26.89949 37198 ft 487 kts 87°
2026-04-27 02:10 27.02045 -26.82351 37207 ft 487 kts 87°
2026-04-27 02:11 27.02007 -26.74818 37199 ft 487 kts 87°
2026-04-27 02:11 27.01964 -26.67216 37201 ft 487 kts 87°
2026-04-27 02:12 27.01918 -26.59615 37199 ft 487 kts 87°
2026-04-27 02:12 27.01867 -26.52022 37206 ft 487 kts 87°
2026-04-27 02:13 27.01813 -26.44465 37198 ft 487 kts 87°
2026-04-27 02:13 27.01754 -26.36852 37199 ft 487 kts 87°
2026-04-27 02:14 27.01692 -26.29288 37198 ft 487 kts 87°
2026-04-27 02:14 27.01625 -26.21696 37205 ft 487 kts 87°
2026-04-27 02:15 27.01554 -26.14093 37195 ft 486 kts 87°
2026-04-27 02:15 27.01479 -26.06515 37195 ft 486 kts 87°
2026-04-27 02:16 27.01401 -25.98989 37196 ft 485 kts 87°
2026-04-27 02:16 27.01318 -25.91410 37204 ft 485 kts 87°
2026-04-27 02:17 27.01231 -25.83840 37189 ft 485 kts 87°
2026-04-27 02:17 27.01140 -25.76264 37193 ft 485 kts 87°
2026-04-27 02:18 27.01046 -25.68741 37194 ft 485 kts 87°
2026-04-27 02:18 27.00947 -25.61192 37201 ft 485 kts 87°
2026-04-27 02:19 27.00844 -25.53619 37192 ft 486 kts 87°
2026-04-27 02:19 27.00737 -25.46037 37186 ft 486 kts 87°
2026-04-27 02:20 27.00627 -25.38496 37187 ft 486 kts 87°
2026-04-27 02:20 27.00511 -25.30890 37188 ft 486 kts 88°
2026-04-27 02:21 27.00392 -25.23307 37187 ft 487 kts 88°
2026-04-27 02:21 27.00268 -25.15712 37188 ft 487 kts 88°
2026-04-27 02:22 27.00142 -25.08173 37190 ft 487 kts 88°
2026-04-27 02:22 27.00029 -25.00581 37201 ft 486 kts 85°
2026-04-27 02:23 27.00816 -24.93151 37196 ft 481 kts 76°
2026-04-27 02:23 27.01934 -24.85701 37187 ft 481 kts 76°
2026-04-27 02:24 27.03030 -24.78289 37185 ft 482 kts 76°
2026-04-27 02:24 27.04085 -24.70844 37187 ft 483 kts 76°
2026-04-27 02:25 27.05113 -24.63427 37189 ft 484 kts 76°
2026-04-27 02:25 27.06139 -24.55964 37183 ft 484 kts 76°
2026-04-27 02:26 27.07159 -24.48533 37183 ft 484 kts 76°
2026-04-27 02:26 27.08177 -24.41092 37183 ft 485 kts 76°
2026-04-27 02:27 27.09199 -24.33597 37192 ft 485 kts 76°
2026-04-27 02:27 27.10216 -24.26111 37178 ft 486 kts 76°
2026-04-27 02:28 27.11232 -24.18597 37184 ft 486 kts 76°
2026-04-27 02:28 27.12242 -24.11097 37187 ft 486 kts 76°
2026-04-27 02:29 27.13243 -24.03636 37190 ft 486 kts 76°
2026-04-27 02:29 27.14247 -23.96119 37189 ft 487 kts 76°
2026-04-27 02:30 27.15247 -23.88599 37179 ft 487 kts 76°
2026-04-27 02:30 27.16244 -23.81072 37186 ft 487 kts 76°
2026-04-27 02:31 27.17230 -23.73597 37195 ft 486 kts 76°
2026-04-27 02:31 27.18218 -23.66075 37181 ft 487 kts 76°
2026-04-27 02:32 27.19204 -23.58538 37174 ft 486 kts 76°
2026-04-27 02:32 27.20184 -23.51011 37177 ft 486 kts 76°
2026-04-27 02:33 27.21152 -23.43548 37175 ft 485 kts 76°
2026-04-27 02:33 27.22118 -23.36063 37183 ft 485 kts 76°
2026-04-27 02:34 27.23084 -23.28555 37175 ft 485 kts 76°
2026-04-27 02:34 27.24042 -23.21064 37176 ft 484 kts 76°
2026-04-27 02:35 27.24999 -23.13558 37176 ft 484 kts 76°
2026-04-27 02:35 27.25950 -23.06069 37144 ft 484 kts 76°
2026-04-27 02:36 27.26894 -22.98593 37167 ft 484 kts 76°
2026-04-27 02:36 27.27831 -22.91151 37171 ft 484 kts 76°
2026-04-27 02:37 27.28770 -22.83653 37169 ft 484 kts 76°
2026-04-27 02:37 27.29706 -22.76147 37194 ft 484 kts 76°
2026-04-27 02:38 27.30640 -22.68623 37171 ft 485 kts 76°
2026-04-27 02:38 27.31565 -22.61141 37163 ft 485 kts 76°
2026-04-27 02:39 27.32492 -22.53604 37162 ft 485 kts 76°
2026-04-27 02:39 27.33415 -22.46064 37164 ft 485 kts 76°
2026-04-27 02:40 27.34333 -22.38537 37165 ft 486 kts 76°
2026-04-27 02:40 27.35241 -22.31055 37162 ft 485 kts 76°
2026-04-27 02:41 27.36149 -22.23538 37160 ft 485 kts 76°
2026-04-27 02:41 27.37053 -22.16023 37160 ft 485 kts 76°
2026-04-27 02:42 27.37953 -22.08500 37160 ft 484 kts 76°
2026-04-27 02:42 27.38850 -22.00977 37161 ft 484 kts 76°
2026-04-27 02:43 27.39733 -21.93531 37157 ft 484 kts 76°
2026-04-27 02:43 27.40619 -21.86026 37158 ft 484 kts 76°
2026-04-27 02:44 27.41501 -21.78516 37180 ft 484 kts 76°
2026-04-27 02:44 27.42379 -21.71006 37160 ft 483 kts 76°
2026-04-27 02:45 27.43252 -21.63507 37156 ft 483 kts 76°
2026-04-27 02:45 27.44117 -21.56035 37153 ft 482 kts 76°
2026-04-27 02:46 27.44976 -21.48580 37156 ft 482 kts 76°
2026-04-27 02:46 27.45832 -21.41117 37160 ft 481 kts 76°
2026-04-27 02:47 27.46686 -21.33637 37149 ft 481 kts 76°
2026-04-27 02:47 27.47535 -21.26164 37143 ft 480 kts 76°
2026-04-27 02:48 27.48378 -21.18710 37148 ft 479 kts 76°
2026-04-27 02:48 27.49212 -21.11305 37164 ft 479 kts 76°
2026-04-27 02:49 27.50047 -21.03848 37153 ft 479 kts 76°
2026-04-27 02:49 27.50879 -20.96385 37139 ft 479 kts 76°
2026-04-27 02:50 27.51700 -20.88980 37144 ft 478 kts 76°
2026-04-27 02:50 27.52522 -20.81524 37140 ft 478 kts 76°
2026-04-27 02:51 27.53200 -20.75352 37144 ft 479 kts 76°
2026-04-27 02:51 27.54017 -20.67878 37143 ft 479 kts 76°
2026-04-27 02:52 27.54822 -20.60479 37135 ft 478 kts 76°
2026-04-27 02:52 27.55629 -20.53023 37135 ft 478 kts 76°
2026-04-27 02:53 27.56431 -20.45572 37170 ft 478 kts 76°
2026-04-27 02:53 27.57223 -20.38186 37133 ft 479 kts 76°
2026-04-27 02:54 27.58016 -20.30743 37122 ft 478 kts 76°
2026-04-27 02:54 27.58804 -20.23304 37132 ft 477 kts 76°
2026-04-27 02:55 27.59589 -20.15859 37121 ft 477 kts 76°
2026-04-27 02:55 27.60369 -20.08431 37127 ft 477 kts 76°
2026-04-27 02:56 27.61141 -20.01043 37120 ft 477 kts 76°
2026-04-27 02:56 27.61912 -19.93620 37120 ft 477 kts 76°
2026-04-27 02:57 27.62681 -19.86175 37115 ft 477 kts 76°
2026-04-27 02:57 27.63440 -19.78784 37155 ft 477 kts 76°
2026-04-27 02:58 27.64205 -19.71307 37123 ft 478 kts 76°
2026-04-27 02:58 27.64964 -19.63846 37111 ft 479 kts 76°
2026-04-27 02:59 27.65711 -19.56449 37110 ft 479 kts 76°
2026-04-27 02:59 27.66465 -19.48953 37107 ft 479 kts 76°
2026-04-27 03:00 27.67215 -19.41455 37115 ft 480 kts 76°
2026-04-27 03:00 27.67962 -19.33950 37111 ft 481 kts 76°
2026-04-27 03:01 27.68699 -19.26493 37109 ft 482 kts 77°
2026-04-27 03:01 27.69438 -19.18984 37100 ft 482 kts 77°
2026-04-27 03:02 27.70175 -19.11444 37141 ft 483 kts 77°
2026-04-27 03:02 27.70910 -19.03886 37102 ft 484 kts 77°
2026-04-27 03:03 27.71998 -18.92612 37090 ft 485 kts 77°
2026-04-27 03:04 27.72725 -18.85028 37095 ft 485 kts 77°
2026-04-27 03:04 27.73445 -18.77469 37084 ft 485 kts 77°
2026-04-27 03:05 27.74163 -18.69891 37089 ft 485 kts 77°
2026-04-27 03:05 27.74877 -18.62317 37087 ft 485 kts 77°
2026-04-27 03:06 27.75578 -18.54824 37085 ft 484 kts 77°
2026-04-27 03:06 27.76283 -18.47251 37086 ft 484 kts 77°
2026-04-27 03:07 27.76983 -18.39692 37093 ft 484 kts 78°
2026-04-27 03:07 27.77668 -18.32244 37086 ft 484 kts 78°
2026-04-27 03:08 27.78359 -18.24678 37078 ft 483 kts 78°
2026-04-27 03:08 27.79044 -18.17140 37079 ft 483 kts 78°
2026-04-27 03:09 27.79727 -18.09586 37078 ft 484 kts 78°
2026-04-27 03:09 27.80406 -18.02016 37076 ft 484 kts 78°
2026-04-27 03:10 27.81078 -17.94492 37083 ft 484 kts 78°
2026-04-27 03:10 27.81785 -17.86932 37067 ft 482 kts 76°
2026-04-27 03:11 27.82905 -17.79533 37067 ft 478 kts 73°
2026-04-27 03:11 27.84170 -17.72159 37092 ft 478 kts 73°
2026-04-27 03:12 27.85395 -17.64767 37075 ft 478 kts 74°
2026-04-27 03:12 27.86567 -17.57414 37061 ft 478 kts 74°
2026-04-27 03:13 27.87729 -17.50016 37064 ft 477 kts 74°
2026-04-27 03:13 27.88298 -17.46363 37040 ft 465 kts 74°
2026-04-27 03:13 27.88843 -17.42842 37033 ft 451 kts 74°
2026-04-27 03:13 27.89379 -17.39392 36873 ft 442 kts 75°
2026-04-27 03:14 27.89911 -17.35982 36470 ft 439 kts 75°
2026-04-27 03:14 27.90454 -17.32542 35564 ft 450 kts 75°
2026-04-27 03:14 27.91013 -17.29010 34641 ft 462 kts 75°
2026-04-27 03:14 27.91582 -17.25396 33767 ft 469 kts 75°
2026-04-27 03:15 27.92147 -17.21758 33171 ft 468 kts 76°
2026-04-27 03:15 27.92700 -17.18164 32813 ft 460 kts 76°
2026-04-27 03:15 27.93244 -17.14619 32436 ft 454 kts 76°
2026-04-27 03:15 27.93775 -17.11161 32002 ft 449 kts 76°
2026-04-27 03:16 27.94304 -17.07726 31550 ft 445 kts 77°
2026-04-27 03:16 27.94834 -17.04282 31128 ft 441 kts 77°
2026-04-27 03:16 27.95354 -17.00900 30932 ft 430 kts 78°
2026-04-27 03:16 27.95860 -16.97608 30571 ft 425 kts 80°
2026-04-27 03:17 27.96369 -16.94290 29575 ft 430 kts 82°
2026-04-27 03:17 27.96870 -16.91018 29238 ft 420 kts 82°
2026-04-27 03:17 27.97362 -16.87795 28942 ft 411 kts 82°
2026-04-27 03:17 27.97846 -16.84619 28439 ft 407 kts 82°
2026-04-27 03:18 27.98325 -16.81470 27847 ft 406 kts 82°
2026-04-27 03:18 27.98803 -16.78320 27314 ft 404 kts 82°
2026-04-27 03:18 27.99274 -16.75212 26833 ft 401 kts 82°
2026-04-27 03:18 27.99744 -16.72115 26368 ft 398 kts 82°
2026-04-27 03:19 27.99933 -16.69014 25838 ft 393 kts 98°
2026-04-27 03:19 27.99277 -16.66067 25573 ft 380 kts 114°
2026-04-27 03:19 27.98256 -16.63320 25128 ft 377 kts 117°
2026-04-27 03:19 27.97184 -16.60672 24709 ft 374 kts 117°
2026-04-27 03:20 27.96082 -16.58007 24268 ft 373 kts 117°
2026-04-27 03:20 27.94987 -16.55349 23799 ft 372 kts 117°
2026-04-27 03:20 27.93902 -16.52690 23279 ft 371 kts 117°
2026-04-27 03:20 27.92835 -16.50048 22783 ft 369 kts 117°
2026-04-27 03:21 27.91777 -16.47412 22316 ft 366 kts 116°
2026-04-27 03:21 27.90731 -16.44794 21847 ft 364 kts 116°
2026-04-27 03:21 27.89695 -16.42197 21392 ft 361 kts 116°
2026-04-27 03:21 27.88666 -16.39615 20940 ft 359 kts 116°
2026-04-27 03:22 27.87642 -16.37045 20482 ft 357 kts 117°
2026-04-27 03:22 27.86637 -16.34524 20041 ft 355 kts 115°
2026-04-27 03:22 27.85622 -16.31979 19589 ft 353 kts 115°
2026-04-27 03:22 27.84615 -16.29454 19141 ft 352 kts 115°
2026-04-27 03:23 27.83607 -16.26931 18672 ft 351 kts 115°
2026-04-27 03:23 27.82605 -16.24425 18186 ft 350 kts 115°
2026-04-27 03:23 27.81604 -16.21920 17695 ft 348 kts 115°
2026-04-27 03:23 27.80610 -16.19436 17228 ft 345 kts 115°
2026-04-27 03:24 27.79625 -16.16974 16755 ft 342 kts 115°
2026-04-27 03:24 27.78660 -16.14565 16317 ft 340 kts 115°
2026-04-27 03:24 27.77691 -16.12146 15873 ft 337 kts 115°
2026-04-27 03:24 27.76726 -16.09742 15436 ft 335 kts 115°
2026-04-27 03:25 27.75769 -16.07355 14992 ft 333 kts 115°
2026-04-27 03:25 27.74816 -16.04982 14555 ft 330 kts 115°
2026-04-27 03:25 27.73867 -16.02619 14115 ft 329 kts 115°
2026-04-27 03:25 27.72924 -16.00273 13646 ft 327 kts 115°
2026-04-27 03:26 27.71986 -15.97942 13166 ft 325 kts 114°
2026-04-27 03:26 27.71050 -15.95619 12710 ft 323 kts 114°
2026-04-27 03:26 27.70123 -15.93315 12266 ft 320 kts 114°
2026-04-27 03:26 27.69205 -15.91038 11821 ft 318 kts 114°
2026-04-27 03:27 27.68305 -15.88805 11393 ft 316 kts 114°
2026-04-27 03:27 27.67399 -15.86560 10953 ft 313 kts 114°
2026-04-27 03:27 27.66497 -15.84324 10513 ft 312 kts 113°
2026-04-27 03:27 27.65605 -15.82116 10259 ft 304 kts 113°
2026-04-27 03:28 27.64741 -15.79980 10091 ft 293 kts 113°
2026-04-27 03:28 27.63900 -15.77898 9723 ft 291 kts 113°
2026-04-27 03:28 27.63062 -15.75826 9297 ft 290 kts 113°
2026-04-27 03:28 27.62226 -15.73758 8883 ft 289 kts 113°
2026-04-27 03:29 27.61402 -15.71723 8506 ft 286 kts 113°
2026-04-27 03:29 27.60588 -15.69714 8131 ft 277 kts 113°
2026-04-27 03:29 27.59800 -15.67771 7805 ft 266 kts 112°
2026-04-27 03:29 27.59056 -15.65935 7529 ft 249 kts 112°
2026-04-27 03:30 27.58356 -15.64211 7274 ft 233 kts 112°
2026-04-27 03:30 27.57706 -15.62612 7037 ft 217 kts 111°
2026-04-27 03:30 27.57097 -15.61115 6811 ft 203 kts 112°
2026-04-27 03:30 27.56527 -15.59713 6717 ft 187 kts 112°
2026-04-27 03:31 27.55989 -15.58387 6620 ft 187 kts 112°
2026-04-27 03:31 27.55481 -15.57072 6515 ft 183 kts 101°
2026-04-27 03:31 27.55617 -15.55755 6403 ft 169 kts 51°
2026-04-27 03:31 27.56530 -15.54958 6178 ft 171 kts 26°
2026-04-27 03:32 27.57625 -15.54394 5790 ft 173 kts 21°
2026-04-27 03:32 27.58726 -15.53903 5682 ft 173 kts 20°
2026-04-27 03:32 27.59863 -15.53403 5548 ft 179 kts 20°
2026-04-27 03:32 27.60989 -15.52905 5383 ft 168 kts 20°
2026-04-27 03:33 27.62048 -15.52436 5264 ft 160 kts 20°
2026-04-27 03:33 27.63100 -15.51971 5174 ft 164 kts 20°
2026-04-27 03:33 27.64178 -15.51494 5091 ft 168 kts 20°
2026-04-27 03:33 27.65264 -15.51013 4995 ft 165 kts 19°
2026-04-27 03:34 27.66339 -15.50537 4892 ft 165 kts 20°
2026-04-27 03:34 27.67410 -15.50063 4790 ft 165 kts 20°
2026-04-27 03:34 27.68468 -15.49595 4675 ft 163 kts 20°
2026-04-27 03:34 27.69517 -15.49130 4578 ft 161 kts 20°
2026-04-27 03:35 27.70548 -15.48674 4459 ft 157 kts 20°
2026-04-27 03:35 27.71570 -15.48222 4342 ft 160 kts 20°
2026-04-27 03:35 27.72568 -15.47780 4149 ft 145 kts 20°
2026-04-27 03:35 27.73437 -15.47395 3975 ft 125 kts 20°
2026-04-27 03:36 27.74233 -15.47043 3809 ft 121 kts 20°
2026-04-27 03:36 27.75027 -15.46692 3646 ft 124 kts 20°
2026-04-27 03:36 27.75829 -15.46337 3491 ft 124 kts 20°
2026-04-27 03:36 27.76603 -15.45994 3325 ft 119 kts 20°
2026-04-27 03:37 27.77377 -15.45652 3171 ft 120 kts 20°
2026-04-27 03:37 27.78166 -15.45302 3011 ft 122 kts 20°
2026-04-27 03:37 27.78960 -15.44951 2837 ft 124 kts 19°
2026-04-27 03:37 27.79764 -15.44595 2680 ft 122 kts 19°
2026-04-27 03:38 27.80551 -15.44246 2522 ft 122 kts 19°
2026-04-27 03:38 27.81331 -15.43902 2354 ft 119 kts 19°
2026-04-27 03:38 27.82106 -15.43559 2203 ft 122 kts 19°
2026-04-27 03:38 27.82906 -15.43205 2036 ft 124 kts 18°
2026-04-27 03:39 27.83700 -15.42853 1860 ft 121 kts 18°
2026-04-27 03:39 27.84484 -15.42506 1719 ft 122 kts 18°
2026-04-27 03:39 27.85274 -15.42157 1556 ft 123 kts 18°
2026-04-27 03:39 27.86079 -15.41800 1391 ft 124 kts 18°
2026-04-27 03:40 27.86618 -15.41561 1265 ft 125 kts 19°
2026-04-27 03:40 27.87402 -15.41214 1105 ft 120 kts 18°
2026-04-27 03:40 27.88178 -15.40871 959 ft 121 kts 18°
2026-04-27 03:40 27.88980 -15.40516 799 ft 124 kts 18°
2026-04-27 03:41 27.89791 -15.40158 631 ft 127 kts 18°
2026-04-27 03:41 27.90600 -15.39799 447 ft 123 kts 18°
2026-04-27 03:41 27.91401 -15.39424 319 ft 125 kts 17°
2026-04-27 03:41 27.92196 -15.39091 99 ft 121 kts 18°
2026-04-27 03:42 27.92914 -15.38786 56 ft 95 kts 21°
2026-04-27 03:42 27.93390 -15.38576 51 ft 52 kts 24°
2026-04-27 03:42 27.93629 -15.38470 50 ft 29 kts 20°
2026-04-27 03:42 27.93747 -15.38422 48 ft 16 kts 19°
2026-04-27 03:43 27.93865 -15.38425 46 ft 19 kts 354°
2026-04-27 03:43 27.93990 -15.38448 43 ft 13 kts 348°
2026-04-27 03:43 27.93997 -15.38466 43 ft 4 kts 256°
2026-04-27 03:43 27.93943 -15.38520 44 ft 14 kts 203°
2026-04-27 03:44 27.93841 -15.38564 45 ft 18 kts 200°
2026-04-27 03:44 27.93736 -15.38598 47 ft 13 kts 195°
2026-04-27 03:44 27.93654 -15.38636 49 ft 13 kts 206°
2026-04-27 03:44 27.93576 -15.38680 50 ft 12 kts 207°
2026-04-27 03:45 27.93499 -15.38714 51 ft 11 kts 197°
2026-04-27 03:45 27.93432 -15.38746 49 ft 9 kts 208°
2026-04-27 03:45 27.93424 -15.38801 52 ft 7 kts 285°
2026-04-27 03:45 27.93442 -15.38853 51 ft 7 kts 298°
2026-04-27 03:46 27.93483 -15.38877 49 ft 7 kts 358°
2026-04-27 03:46 27.93529 -15.38860 49 ft 7 kts 19°
2026-04-27 03:46 27.93542 -15.38857 51 ft 1 kts
2026-04-27 03:46 27.93556 -15.38865 51 ft 3 kts 315°
2026-04-27 03:47 27.93563 -15.38904 51 ft 7 kts 274°
2026-04-27 03:47 27.93576 -15.38939 50 ft 0 kts 302°